GFSFLT2_850_dewp_045.txt.gz
Dewpoint
12 11 6 -0 -6 -11 -13 -12 -7 -6 -7 -9 -8 -7 -5 -4 -3 -3 -2 -2 -2 -1 0 1 3 3 1 0 -1 -2 -3 -4
9 7 3 -2 -7 -11 -12 -10 -4 -6 -7 -7 -7 -6 -5 -4 -3 -3 -2 -2 -2 -0 2 2 3 3 2 -0 -2 -3 -4 -5
8 6 4 1 -4 -9 -10 -3 -5 -6 -7 -6 -6 -5 -4 -3 -2 -2 -2 -2 0 2 3 3 4 4 2 0 -1 -3 -4 -5
7 5 4 2 -2 -7 -3 -2 -4 -5 -5 -3 1 -1 -3 -2 -1 -1 -1 2 3 4 4 4 4 4 3 0 -1 -3 -7 -9
6 7 3 3 -2 -5 1 -1 2 2 5 7 7 5 5 4 4 3 3 4 4 4 4 4 5 4 2 -1 -3 -9 -12 -9
7 2 1 1 -2 -1 -0 -1 6 8 8 8 7 6 7 7 6 5 5 4 5 5 5 5 5 3 0 -2 -7 -17 -13 -11
9 4 4 2 -3 2 3 8 9 9 9 8 5 8 8 7 7 6 5 5 5 5 5 5 4 1 -1 -3 -15 -21 -20 -19
7 4 3 -1 -2 3 2 8 8 8 9 8 8 7 8 8 7 7 6 6 5 5 5 4 0 -0 -1 -9 -18 -17 -16 -17
7 6 2 -1 1 4 3 7 9 8 6 7 6 7 8 9 8 7 6 6 5 5 5 1 0 -0 -5 -15 -12 -11 -12 -11
8 3 -1 -0 7 8 9 9 9 8 8 7 7 8 9 9 8 7 7 6 6 5 2 0 0 -3 -12 -11 -9 -10 -10 -8
8 6 4 4 8 9 9 9 10 10 9 6 4 7 9 8 7 8 7 6 5 1 0 1 -1 -9 -9 -9 -7 -10 -8 -11
9 7 7 8 9 9 9 10 11 10 7 4 5 6 7 8 7 7 5 2 1 1 1 0 -7 -8 -9 -8 -9 -8 -8 -9
10 9 7 7 8 9 10 10 10 8 4 5 6 7 7 7 6 4 0 0 1 1 -0 -5 -6 -8 -9 -7 -9 -7 -6 -7
10 9 7 6 7 9 10 10 9 6 5 6 6 6 7 5 2 0 0 1 1 -1 -3 -5 -6 -5 -4 -6 -6 -6 -6 -7
5 5 4 5 7 10 10 9 8 6 5 6 6 5 4 1 0 1 2 1 -1 -2 -2 -3 -3 -3 -3 -5 -4 -4 -3 -4
4 -0 0 4 7 10 10 9 7 6 6 7 5 5 1 1 1 2 2 -1 -1 -1 -1 -1 -2 -3 -6 -8 -4 -3 -2 -3
6 3 2 4 8 10 9 8 7 7 8 7 5 3 2 3 3 2 -0 -0 -0 -0 -1 -2 -6 -12 -13 -9 -7 -5 -3 -3
7 6 7 8 9 9 9 8 7 8 6 5 4 3 3 4 3 1 1 0 -0 -1 -4 -8 -14 -16 -15 -12 -9 -7 -5 -2
7 8 8 9 9 9 8 9 9 8 6 3 4 4 4 4 2 2 0 -1 1 -3 -5 -8 -15 -17 -13 -11 -9 -6 -3 -3
7 8 9 10 10 10 9 9 9 8 6 5 5 5 4 4 3 3 1 0 -3 -4 -5 -15 -19 -12 -7 -6 -8 -8 -6 -5

GFSFLT2_850_dewp_048.txt.gz
Dewpoint
12 12 8 0 -8 -14 -14 -9 -4 -6 -9 -6 -4 -3 -3 -2 -2 -2 -2 -1 -0 1 2 3 3 1 -1 -3 -4 -5 -6 -7
11 8 4 -4 -11 -12 -8 -4 -5 -7 -8 -5 -4 -3 -3 -2 -2 -2 -2 -2 -0 2 3 4 3 3 -0 -2 -4 -6 -8 -10
9 6 1 -5 -8 -6 -5 -4 -5 -7 -6 -4 -4 -3 -3 -2 -2 -2 -2 -1 1 3 4 4 4 3 2 -1 -3 -7 -12 -15
6 3 1 2 0 -4 -4 -3 -6 -7 -5 -4 -3 -2 -2 -2 -2 -1 -2 -0 3 4 4 4 4 4 2 -1 -3 -10 -18 -16
6 5 4 4 -2 -5 -7 -4 -6 -4 -4 -2 -3 -3 -3 -2 -1 0 2 3 4 4 4 4 5 4 1 -1 -5 -15 -17 -16
6 6 4 2 -2 -6 -7 -3 -4 -2 2 5 3 3 3 4 4 4 4 4 4 5 5 5 5 4 -0 -2 -7 -19 -20 -19
6 6 3 0 -4 -6 1 -1 2 6 8 8 7 6 6 6 6 5 5 5 5 5 5 5 5 1 -1 -3 -13 -20 -20 -20
6 2 2 -1 -4 -4 1 1 8 8 8 9 7 7 8 7 7 6 6 6 5 5 5 5 3 0 -1 -6 -17 -18 -20 -20
2 2 2 1 -2 -1 1 5 9 9 9 9 8 7 7 8 8 7 7 6 5 5 5 4 1 -1 -2 -13 -16 -17 -16 -14
7 4 4 0 -1 1 3 8 8 8 8 8 7 6 6 8 9 8 7 6 6 6 5 1 -0 -0 -10 -15 -14 -13 -11 -12
7 7 5 -0 -1 2 4 4 8 9 8 7 7 5 6 9 8 7 7 7 6 5 2 0 -0 -7 -12 -12 -12 -11 -10 -11
8 7 1 -2 1 4 6 9 10 9 9 8 6 5 7 9 8 8 7 7 5 2 1 0 -5 -7 -8 -7 -10 -10 -10 -9
8 8 5 2 2 8 9 10 10 9 9 9 4 5 6 7 8 8 7 4 1 1 1 -3 -4 -5 -5 -4 -9 -11 -8 -7
6 7 7 6 7 8 9 9 9 9 10 7 5 6 6 7 7 7 4 1 2 1 -1 -2 -2 -2 -3 -4 -7 -10 -7 -7
7 6 8 7 6 7 8 9 9 8 9 6 5 6 7 7 6 4 2 3 2 -1 -1 -1 -1 -2 -3 -6 -8 -9 -7 -6
8 8 7 7 6 6 7 7 9 8 9 7 6 6 6 6 4 3 3 2 -0 -1 -0 -1 -3 -5 -9 -12 -12 -7 -4 -4
8 8 9 8 8 7 7 8 9 10 8 6 7 6 5 4 4 4 3 1 -0 -0 -1 -1 1 -6 -14 -18 -15 -10 -6 -3
9 8 8 8 7 7 7 7 8 9 8 8 7 6 5 4 4 3 3 1 0 0 -0 2 -5 -10 -13 -16 -11 -9 -8 -6
8 9 8 6 4 6 6 8 8 9 8 8 7 6 5 4 4 3 3 1 2 1 2 -2 -2 -2 -13 -10 -9 -9 -10 -7
8 8 7 7 5 6 7 9 10 9 9 9 6 5 4 4 4 4 3 4 3 2 2 -2 -12 -15 -12 -9 -9 -11 -13 -10

GFSFLT2_850_dewp_051.txt.gz
Dewpoint
13 11 6 0 -6 -9 -9 -6 -7 -9 -5 -3 -2 -2 -2 -1 -0 -0 1 1 2 2 3 3 2 -1 -3 -4 -6 -8 -11 -15
12 10 7 4 -2 -4 2 -5 -8 -8 -4 -3 -2 -2 -1 -1 -1 -1 -0 0 2 3 4 3 3 1 -3 -4 -6 -11 -16 -15
11 8 6 3 -1 -4 -2 -4 -7 -6 -3 -3 -3 -2 -2 -2 -2 -1 -1 1 3 4 4 4 4 2 -2 -4 -7 -14 -19 -17
7 6 5 3 0 2 -2 -3 -7 -5 -4 -3 -3 -3 -2 -2 -1 -1 1 2 4 4 4 4 5 4 -1 -3 -6 -15 -18 -18
8 5 3 3 -1 2 3 -2 -6 -5 -4 -4 -3 -3 -2 -2 -1 -1 1 4 4 4 4 4 5 4 -1 -3 -6 -14 -19 -19
7 3 3 4 4 4 -1 -3 -5 -5 -4 -3 -3 -3 -1 -2 -1 2 4 4 4 4 5 5 5 4 -0 -3 -6 -16 -19 -19
4 4 4 4 3 -1 -3 -3 -4 -4 -3 -3 -3 -2 -1 2 4 4 4 5 5 5 5 5 5 4 -1 -3 -9 -17 -18 -20
6 6 5 2 1 -4 -2 -3 -4 -2 2 5 4 5 5 6 6 6 6 6 6 5 5 5 5 2 -1 -3 -13 -17 -19 -20
5 1 -1 -2 -1 -3 -1 -2 -1 5 7 8 8 7 8 7 7 7 7 6 6 5 5 5 3 -0 -1 -9 -16 -18 -19 -17
6 3 1 -1 -4 -4 0 -0 5 8 8 8 7 7 6 7 8 8 7 7 6 5 5 5 0 -0 -6 -13 -15 -17 -15 -13
2 2 3 3 1 -1 -0 1 4 9 8 6 6 6 6 6 6 8 7 6 6 6 5 1 0 -3 -9 -11 -11 -13 -12 -11
6 5 5 5 4 0 -0 3 7 8 8 8 7 7 5 4 7 8 7 7 7 6 3 1 -1 -5 -6 -5 -7 -9 -9 -8
8 8 7 6 3 -0 -0 3 3 4 8 8 7 7 4 5 7 8 8 7 6 4 1 1 -2 -2 -2 -2 -5 -8 -8 -8
6 8 8 5 1 -2 2 3 6 8 8 9 8 7 4 5 7 8 7 7 5 2 2 -2 -1 -1 -2 -4 -2 -4 -9 -9
6 7 7 8 4 1 2 7 8 9 9 8 8 6 5 6 7 8 7 5 2 2 1 -1 -1 -2 -3 -2 -3 -5 -7 -7
6 6 6 8 8 6 6 6 8 7 7 8 8 6 6 6 8 7 5 3 2 2 -1 -0 -0 0 -0 -5 -12 -15 -7 -7
7 7 7 8 9 9 8 7 7 8 8 10 8 6 6 7 7 5 4 3 3 1 -0 -0 2 1 -3 -8 -9 -13 -14 -7
7 7 8 9 9 8 8 8 7 7 8 9 9 7 7 7 5 5 4 3 2 1 1 3 1 3 0 -2 -9 -9 -7 -5
7 7 8 8 8 8 8 7 8 8 9 10 9 8 7 6 5 4 3 3 4 3 3 1 3 0 -7 -10 -15 -12 -11 -12
8 8 8 7 8 8 8 6 7 9 10 10 9 8 8 6 5 4 3 4 4 2 2 2 -2 -9 -16 -16 -14 -11 -10 -12

GFSFLT2_850_dewp_054.txt.gz
Dewpoint
12 10 10 2 4 -6 -4 -0 -7 -9 -7 -5 -2 -2 -2 -2 -1 -0 1 2 2 3 2 1 -2 -4 -4 -7 -11 -13 2 3
11 10 9 1 -2 -3 -6 0 -6 -6 -5 -3 -2 -2 -1 -0 1 1 1 2 3 3 3 3 1 -2 -4 -7 -11 -5 0 1
11 10 3 1 3 1 -2 -6 -2 -1 -2 -1 -1 0 1 2 1 0 1 3 4 4 4 4 3 -1 -4 -5 -7 -3 -2 -0
11 7 6 6 3 1 -1 -1 0 -1 -1 -1 3 4 6 1 -0 1 2 3 4 4 4 4 4 2 -2 -4 -6 -8 -5 -5
9 7 4 3 4 4 5 4 -0 -1 -2 -1 -1 -0 -1 -0 0 2 3 4 4 4 4 4 5 4 -1 -3 -6 -7 -8 -8
6 6 6 6 6 3 2 1 1 -3 -3 -2 -2 -2 -0 3 6 6 3 5 4 4 5 5 4 4 -1 -3 -5 -12 -13 -8
7 7 6 5 5 4 4 1 -2 -0 -2 -2 -2 1 -1 2 5 5 5 4 5 5 5 5 4 4 -1 -2 -8 -14 -16 -5
7 6 5 6 5 5 2 -1 -1 -1 -3 -2 -3 -2 -2 0 2 4 5 5 5 5 5 5 4 3 -1 -3 -12 -15 -15 -9
5 6 6 5 5 4 7 6 5 2 2 -2 -2 0 2 4 5 6 6 6 6 6 5 5 5 1 -1 -6 -11 -13 -13 -13
7 7 6 7 7 4 7 6 0 5 -0 4 6 6 6 6 7 7 7 7 7 6 5 4 4 -0 -3 -6 -8 -9 -13 -15
7 7 6 6 8 2 -2 2 1 2 6 8 8 8 7 7 7 7 7 8 7 6 5 4 2 -0 -2 -2 -4 -5 -6 -7
7 7 7 4 7 -0 1 3 4 5 7 7 8 8 7 7 6 7 8 7 6 5 5 5 1 -1 -3 -2 -1 -2 -3 -4
8 8 8 9 9 8 6 3 6 4 6 8 7 7 6 7 7 7 8 7 6 6 5 2 1 -1 0 1 1 0 -1 -3
8 8 9 10 9 8 7 6 7 5 6 6 7 7 7 7 6 7 8 8 7 6 4 2 2 -1 1 1 1 0 -1 -2
9 10 10 11 10 9 8 8 8 4 2 3 7 7 7 6 6 7 7 7 7 6 3 2 2 1 0 1 1 -0 -3 -3
8 8 9 11 10 9 8 6 7 7 4 7 7 7 8 6 6 7 7 7 7 5 2 2 1 1 2 1 1 -2 -2 -3
9 9 9 10 10 10 10 8 7 8 9 7 7 8 8 6 6 7 8 7 6 3 2 2 0 1 3 1 -1 -1 -1 -2
11 10 9 10 10 8 10 10 9 10 7 7 8 8 9 7 7 7 7 6 5 3 3 2 1 3 2 2 -1 -3 -5 -7
11 10 10 10 10 9 9 9 9 9 9 6 8 9 9 8 7 7 6 5 4 3 3 2 2 2 2 -1 -9 -5 -6 -6
9 8 10 10 9 7 8 8 8 8 8 8 9 8 9 8 7 7 6 5 4 3 2 2 2 2 -2 -15 -6 -4 -4 -5

GFSFLT2_850_dewp_057.txt.gz
Dewpoint
12 11 9 6 7 5 -1 0 -2 -3 -5 -2 0 -1 -1 -1 -1 -1 0 2 2 1 0 -3 -5 -6 -9 -12 -5 2 3 4
12 10 9 7 4 4 0 5 4 -1 -2 1 0 -1 -2 -1 -0 1 2 3 3 3 3 1 -4 -6 -7 -8 -2 -0 1 2
11 11 10 9 3 0 2 4 3 1 2 1 -1 -1 -0 2 1 2 2 3 4 4 4 4 -1 -4 -5 -6 -3 -2 -2 1
11 11 10 7 6 4 5 4 3 2 1 0 -0 1 6 2 1 2 3 4 4 4 4 4 2 0 -2 -2 -3 -4 -5 -3
11 10 9 8 5 2 4 4 5 2 3 5 2 4 7 2 2 3 3 4 4 4 4 4 4 2 -3 -3 -3 -5 -5 -6
9 8 5 4 4 8 8 7 3 2 -0 1 3 5 6 1 1 3 4 5 4 5 5 5 4 3 -2 -2 -7 -5 -5 -5
7 5 6 8 8 5 3 2 2 0 2 6 -1 5 6 5 7 7 6 6 5 5 5 5 4 3 -2 -2 -6 -7 -6 -3
7 6 7 6 4 5 4 4 2 6 7 2 1 7 6 7 8 7 7 6 6 5 5 5 3 3 -1 -3 -6 -6 -7 -4
6 5 7 7 5 3 4 5 7 7 4 1 5 8 8 7 7 7 7 6 6 6 5 5 3 1 0 -2 -3 -4 -4 -2
7 6 6 5 5 5 6 7 6 3 5 8 7 7 3 4 8 7 6 6 6 6 5 5 4 2 0 -2 -2 -3 -4 -4
7 7 7 5 5 6 7 7 4 6 6 8 5 0 3 5 7 8 8 8 7 6 5 5 4 2 -0 -0 0 -1 -2 -4
7 7 7 7 6 7 7 7 8 6 6 8 6 8 9 7 8 9 9 8 8 7 6 5 4 2 -2 -2 2 1 -0 -1
8 8 8 7 7 7 7 6 6 7 7 9 8 8 9 9 9 9 8 7 7 7 6 5 4 2 2 2 2 2 2 -0
7 7 7 7 6 6 6 6 6 7 8 9 9 8 9 9 9 9 8 7 7 7 6 5 4 3 2 2 3 2 1 1
7 8 8 8 7 7 6 6 5 6 7 9 6 7 7 7 8 9 8 7 7 7 6 5 4 3 3 3 3 2 1 -0
8 8 8 8 9 8 7 6 6 6 8 9 7 2 3 6 8 9 8 8 7 7 6 6 5 3 3 3 3 2 1 0
9 9 9 9 9 8 8 8 7 6 8 9 8 3 5 8 8 8 8 8 7 7 6 5 4 4 3 2 3 1 1 1
9 9 8 8 9 10 9 9 9 7 7 10 10 9 7 7 9 8 8 7 7 7 6 5 4 3 2 1 2 1 0 -1
9 9 9 9 9 9 10 10 10 10 9 10 10 9 10 9 8 8 8 8 7 6 6 5 3 2 1 2 2 0 -1 -3
10 10 10 9 10 10 11 11 11 11 11 10 10 10 9 9 9 9 7 6 6 6 5 4 3 2 2 2 -0 -1 -2 -3